CW9386 Weather Reports


time (UTC)temp
F
wind
direction
speed
knots
gust
knots
rain 1hr
in
rain 24hr
in
rain mn
in
humidity
%
barometer
mb
20260506044643 65 223 4.3 7.8 0.00 0.00 0.00 26 1012.4
20260506043638 65 182 2.6 7.0 0.00 0.00 0.00 26 1012.4
20260506042657 66 201 2.6 6.1 0.00 0.00 0.00 26 1012.3
20260506041652 66 187 2.6 7.0 0.00 0.00 0.00 25 1012.2
20260506040647 66 210 4.3 7.8 0.00 0.00 0.00 24 1012.1
20260506035642 67 205 3.5 7.0 0.00 0.00 0.00 24 1011.9
20260506033654 67 210 2.6 6.1 0.00 0.00 0.00 25 1011.6
20260506032642 68 202 2.6 5.2 0.00 0.00 0.00 25 1011.3
20260506030642 69 209 2.6 4.3 0.00 0.00 0.00 24 1011.1
20260506025653 69 248 2.6 7.0 0.00 0.00 0.00 24 1010.9
20260506024648 69 244 2.6 7.0 0.00 0.00 0.00 23 1010.7
20260506023640 70 248 4.3 8.7 0.00 0.00 0.00 23 1010.7
20260506022648 70 229 6.1 9.6 0.00 0.00 0.00 23 1010.5
20260506021643 70 239 5.2 8.7 0.00 0.00 0.00 23 1010.5
20260506020654 71 247 3.5 7.0 0.00 0.00 0.00 23 1010.3
20260506015650 71 242 3.5 11.3 0.00 0.00 0.00 23 1010.2
20260506014645 71 267 5.2 11.3 0.00 0.00 0.00 23 1010.0
20260506011647 72 261 6.1 12.2 0.00 0.00 0.00 28 1010.7
20260506010636 72 255 6.1 11.3 0.00 0.00 0.00 29 1010.7
20260506005647 72 276 6.1 13.9 0.00 0.00 0.00 28 1010.6
20260506004635 73 242 7.8 11.3 0.00 0.00 0.00 27 1010.5
20260506003651 73 295 4.3 8.7 0.00 0.00 0.00 28 1010.5
20260506002641 73 261 4.3 11.3 0.00 0.00 0.00 27 1010.5
20260506001639 73 252 5.2 11.3 0.00 0.00 0.00 28 1010.5
20260506000653 73 225 7.0 13.0 0.00 0.00 0.00 27 1010.5
20260505234640 74 244 6.1 12.2 0.00 0.00 0.00 27 1010.6
20260505233651 74 259 8.7 16.5 0.00 0.00 0.00 27 1010.6
20260505231649 74 260 9.6 14.8 0.00 0.00 0.00 27 1010.7
20260505230646 74 236 7.0 14.8 0.00 0.00 0.00 28 1010.7
20260505225641 74 244 11.3 16.5 0.00 0.00 0.00 27 1010.9
20260505224650 74 207 10.4 17.4 0.00 0.00 0.00 28 1010.9
20260505223644 75 241 7.8 19.1 0.00 0.00 0.00 28 1011.0
20260505222650 74 246 10.4 14.8 0.00 0.00 0.00 27 1011.1
20260505221638 74 231 7.0 15.6 0.00 0.00 0.00 29 1011.2
20260505220636 73 244 8.7 16.5 0.00 0.00 0.00 28 1011.5
20260505215646 73 257 13.0 19.1 0.00 0.00 0.00 28 1011.6
20260505214641 73 248 12.2 17.4 0.00 0.00 0.00 29 1011.7
20260505213637 73 236 8.7 16.5 0.00 0.00 0.00 32 1011.9
20260505212631 72 200 11.3 15.6 0.00 0.00 0.00 33 1012.1
20260505211643 72 215 8.7 16.5 0.00 0.00 0.00 35 1012.3
20260505210634 71 227 7.0 13.0 0.00 0.00 0.00 36 1012.5
20260505204646 71 217 8.7 20.9 0.00 0.00 0.00 36 1013.0
20260505203643 70 256 9.6 18.2 0.00 0.00 0.00 37 1013.1
20260505202639 69 258 11.3 16.5 0.00 0.00 0.00 38 1013.2
20260505200631 68 242 13.9 20.0 0.00 0.00 0.00 38 1013.3
20260505195632 68 253 11.3 20.9 0.00 0.00 0.00 40 1013.5
20260505194645 68 235 12.2 22.6 0.00 0.00 0.00 39 1013.5
20260505192636 65 263 12.2 22.6 0.00 0.00 0.00 45 1013.8
20260505190646 65 234 13.9 25.2 0.00 0.00 0.00 45 1014.0
20260505185639 65 243 12.2 27.8 0.00 0.00 0.00 42 1014.5
20260505184638 66 257 14.8 23.5 0.00 0.00 0.00 40 1014.6
20260505183644 66 250 14.8 23.5 0.00 0.00 0.00 40 1014.4
20260505182639 66 243 15.6 20.9 0.00 0.00 0.00 39 1014.0
20260505181630 67 256 14.8 20.9 0.00 0.00 0.00 39 1013.9
20260505180643 67 280 14.8 21.7 0.00 0.00 0.00 38 1014.0
20260505174629 69 267 13.0 18.2 0.00 0.00 0.00 35 1014.0
20260505173627 69 248 11.3 16.5 0.00 0.00 0.00 34 1013.7
20260505171636 69 225 4.3 14.8 0.00 0.00 0.00 33 1013.7
20260505170636 70 241 8.7 15.6 0.00 0.00 0.00 32 1013.5
20260505165626 69 252 9.6 16.5 0.00 0.00 0.00 33 1013.5
20260505164640 68 206 7.0 12.2 0.00 0.00 0.00 36 1013.4
20260505162627 67 219 6.1 9.6 0.00 0.00 0.00 37 1013.5
20260505161642 66 238 4.3 8.7 0.00 0.00 0.00 40 1013.3
20260505160631 66 273 2.6 5.2 0.00 0.00 0.00 39 1013.3
20260505152633 64 272 3.5 7.8 0.00 0.00 0.00 43 1013.6
20260505151639 64 261 2.6 8.7 0.00 0.00 0.00 43 1013.6
20260505150632 64 274 3.5 7.0 0.00 0.00 0.00 43 1013.5
20260505124719 58 165 0.9 3.5 0.00 0.00 0.00 55 1013.2
20260505123726 57 202 0.9 4.3 0.00 0.00 0.00 55 1013.2
20260505122740 57 168 2.6 4.3 0.00 0.00 0.00 55 1013.1
20260505121736 58 155 2.6 4.3 0.00 0.00 0.00 54 1013.0
20260505120733 58 169 1.7 5.2 0.00 0.00 0.00 53 1012.9
20260505115725 58 165 0.9 3.5 0.00 0.00 0.00 52 1012.8
20260505114720 59 207 0.0 1.7 0.00 0.00 0.00 52 1012.9
20260505112737 59 190 0.9 3.5 0.00 0.00 0.00 50 1012.8
20260505111736 59 207 1.7 4.3 0.00 0.00 0.00 49 1012.6
20260505110731 60 178 1.7 3.5 0.00 0.00 0.00 49 1012.7
20260505100727 61 189 1.7 3.5 0.00 0.00 0.00 45 1012.5
20260505095736 61 199 1.7 3.5 0.00 0.00 0.00 45 1012.4
20260505094733 61 195 1.7 3.5 0.00 0.00 0.00 45 1012.4
20260505093730 61 192 2.6 7.0 0.00 0.00 0.00 45 1012.2
20260505092724 60 195 5.2 10.4 0.00 0.00 0.00 46 1012.2
20260505091724 60 173 0.9 4.3 0.00 0.00 0.00 46 1012.2
20260505090716 61 164 2.6 4.3 0.00 0.00 0.00 46 1012.5
20260505085733 61 178 2.6 4.3 0.00 0.00 0.00 45 1012.6
20260505083729 61 279 4.3 7.0 0.00 0.00 0.00 44 1012.6
20260505081717 62 194 2.6 3.5 0.00 0.00 0.00 41 1012.7
20260505074729 64 20 0.9 2.6 0.00 0.00 0.00 35 1013.0
20260505073726 65 19 0.9 4.3 0.00 0.00 0.00 33 1012.9
20260505072720 66 21 2.6 5.2 0.00 0.00 0.00 33 1013.2
20260505071717 66 197 0.9 2.6 0.00 0.00 0.00 33 1013.1
20260505070723 66 252 1.7 6.1 0.00 0.00 0.00 33 1012.8
20260505065716 66 276 4.3 7.8 0.00 0.00 0.00 32 1012.4
20260505064731 67 234 3.5 5.2 0.00 0.00 0.00 30 1012.4
20260505063719 67 271 2.6 6.1 0.00 0.00 0.00 28 1012.5
20260505062734 67 229 1.7 7.8 0.00 0.00 0.00 28 1012.6
20260505061719 67 267 2.6 7.0 0.00 0.00 0.00 28 1012.5
20260505060714 67 246 3.5 6.1 0.00 0.00 0.00 28 1012.9
20260505055725 67 195 1.7 4.3 0.00 0.00 0.00 28 1013.1
20260505054715 68 221 1.7 3.5 0.00 0.00 0.00 27 1013.2
20260505053728 68 234 2.6 6.1 0.00 0.00 0.00 26 1013.0
20260505052728 69 267 0.9 3.5 0.00 0.00 0.00 25 1012.9
20260505051723 69 281 2.6 5.2 0.00 0.00 0.00 24 1013.1
20260505050719 69 260 1.7 3.5 0.00 0.00 0.00 24 1012.8